TimeEST,TemperatureF,Dew PointF,Humidity,Sea Level PressureIn,VisibilityMPH,Wind Direction,Wind SpeedMPH,Gust SpeedMPH,PrecipitationIn,Events,Conditions,WindDirDegrees,DateUTC
12:53 AM,37.9,35.1,89,30.09,10.0,Calm,Calm,-,N/A,,Clear,0,2013-02-05 05:53:00
1:53 AM,37.9,34.0,86,30.06,10.0,Calm,Calm,-,N/A,,Clear,0,2013-02-05 06:53:00
2:53 AM,34.0,32.0,92,30.04,10.0,Calm,Calm,-,N/A,,Clear,0,2013-02-05 07:53:00
3:53 AM,37.0,34.0,89,30.06,10.0,NNW,4.6,-,N/A,,Clear,330,2013-02-05 08:53:00
4:53 AM,35.1,32.0,89,30.05,10.0,Calm,Calm,-,N/A,,Clear,0,2013-02-05 09:53:00
5:53 AM,35.1,33.1,92,30.06,10.0,Calm,Calm,-,N/A,,Clear,0,2013-02-05 10:53:00
6:53 AM,37.0,34.0,89,30.07,10.0,Calm,Calm,-,N/A,,Scattered Clouds,0,2013-02-05 11:53:00
7:53 AM,39.0,35.1,86,30.09,10.0,Calm,Calm,-,N/A,,Clear,0,2013-02-05 12:53:00
8:53 AM,55.9,37.9,51,30.12,10.0,NE,4.6,-,N/A,,Clear,40,2013-02-05 13:53:00
9:53 AM,63.0,36.0,37,30.13,10.0,Variable,3.5,-,N/A,,Clear,0,2013-02-05 14:53:00
10:53 AM,66.9,37.9,34,30.13,10.0,Calm,Calm,-,N/A,,Clear,0,2013-02-05 15:53:00
11:53 AM,71.1,43.0,36,30.11,10.0,Calm,Calm,-,N/A,,Clear,0,2013-02-05 16:53:00
12:53 PM,73.0,46.0,38,30.08,10.0,Variable,5.8,-,N/A,,Clear,0,2013-02-05 17:53:00
1:53 PM,73.9,46.9,38,30.04,10.0,Variable,3.5,-,N/A,,Clear,0,2013-02-05 18:53:00
2:53 PM,75.9,46.0,35,30.03,10.0,WSW,6.9,-,N/A,,Clear,240,2013-02-05 19:53:00
3:53 PM,73.9,48.9,41,30.03,10.0,West,10.4,-,N/A,,Clear,280,2013-02-05 20:53:00
4:53 PM,71.1,50.0,47,30.04,10.0,West,10.4,-,N/A,,Clear,270,2013-02-05 21:53:00
5:53 PM,69.1,50.0,51,30.04,10.0,West,9.2,-,N/A,,Partly Cloudy,260,2013-02-05 22:53:00
6:53 PM,64.0,48.9,58,30.04,10.0,Calm,Calm,-,N/A,,Mostly Cloudy,0,2013-02-05 23:53:00
7:53 PM,62.1,51.1,67,30.05,10.0,Calm,Calm,-,N/A,,Overcast,0,2013-02-06 00:53:00
8:53 PM,57.9,50.0,75,30.06,10.0,Calm,Calm,-,N/A,,Clear,0,2013-02-06 01:53:00
9:53 PM,57.0,51.1,81,30.07,10.0,Calm,Calm,-,N/A,,Partly Cloudy,0,2013-02-06 02:53:00
11:53 PM,54.0,50.0,86,30.07,10.0,Calm,Calm,-,N/A,,Clear,0,2013-02-06 04:53:00